This is the latest recevied weather packets stored in our database for station/object OH7GGX-14. If no packets are shown the sender has not sent any weather packets the latest 10 day(s).
| Time | Temp. | Humidity | Pressure | Rain* | Wind** | Luminosity | Snow |
|---|---|---|---|---|---|---|---|
| 1787681825 | 12.22° C | 99% | 1020.3 hPa | 0 mm | - | - | - |
| 1787681225 | 12.78° C | 99% | 1020.2 hPa | 0 mm | - | - | - |
| 1787680625 | 12.78° C | 99% | 1020.1 hPa | 0 mm | - | - | - |
| 1787680025 | 13.33° C | 99% | 1019.9 hPa | 0 mm | - | - | - |
| 1787679425 | 13.33° C | 99% | 1019.9 hPa | 0 mm | - | - | - |
| 1787678825 | 13.89° C | 99% | 1019.9 hPa | 0 mm | - | - | - |
| 1787678225 | 14.44° C | 97% | 1019.9 hPa | 0 mm | - | - | - |
| 1787677625 | 14.44° C | 95% | 1019.9 hPa | 0 mm | - | - | - |
| 1787677026 | 15° C | 92% | 1019.8 hPa | 0 mm | - | - | - |
| 1787676425 | 15.56° C | 89% | 1019.7 hPa | 0 mm | - | - | - |
| 1787675825 | 16.11° C | 86% | 1019.6 hPa | 0 mm | - | - | - |
| 1787675225 | 16.67° C | 84% | 1019.5 hPa | 0 mm | - | - | - |
| 1787674626 | 16.67° C | 80% | 1019.4 hPa | 0 mm | - | - | - |
| 1787674026 | 16.67° C | 77% | 1019.3 hPa | 0 mm | - | - | - |
| 1787673426 | 17.22° C | 77% | 1019.3 hPa | 0 mm | - | - | - |
| 1787672826 | 17.22° C | 75% | 1019.2 hPa | 0 mm | - | - | - |
| 1787672226 | 17.22° C | 72% | 1019.2 hPa | 0 mm | - | - | - |
| 1787671626 | 17.22° C | 74% | 1019 hPa | 0 mm | - | - | - |
| 1787671026 | 17.22° C | 74% | 1018.9 hPa | 0 mm | - | - | - |
| 1787670426 | 17.22° C | 72% | 1019 hPa | 0 mm | - | - | - |
| 1787669826 | 17.22° C | 73% | 1019 hPa | 0 mm | - | - | - |
| 1787669226 | 17.22° C | 72% | 1018.8 hPa | 0 mm | - | - | - |
| 1787668626 | 17.22° C | 73% | 1018.7 hPa | 0 mm | - | - | - |
| 1787668026 | 17.22° C | 71% | 1018.7 hPa | 0 mm | - | - | - |
| 1787667426 | 17.22° C | 71% | 1018.6 hPa | 0 mm | - | - | - |
* Rain latest hour (hover to see other rain measurements)
** Current wind speed in m/s (hover to see current wind gust speed)